GW1804 Weather Reports


time (UTC)temp
C
wind
direction
speed
KPH
gust
KPH
rain 1hr
cm
rain 24hr
cm
rain mn
cm
humidity
%
barometer
mb
20260831092535 21 0 0.0 3.2 0.00 0.00 0.00 90 1012.4
20260831092040 21 185 0.0 3.2 0.00 0.00 0.00 90 1012.4
20260831091559 21 180 0.0 1.6 0.00 0.00 0.00 90 1012.4
20260831091035 21 180 0.0 1.6 0.00 0.00 0.00 90 1012.5
20260831090535 21 0 0.0 3.2 0.00 0.00 0.00 90 1012.4
20260831090056 21 0 0.0 3.2 0.00 0.00 0.00 90 1012.4
20260831085535 21 0 0.0 1.6 0.00 0.00 0.00 90 1012.4
20260831085036 21 0 0.0 1.6 0.00 0.00 0.00 89 1012.4
20260831084612 21 0 0.0 1.6 0.00 0.00 0.00 89 1012.5
20260831084033 21 0 0.0 1.6 0.00 0.00 0.00 89 1012.5
20260831083539 21 0 0.0 3.2 0.00 0.00 0.00 89 1012.5
20260831083104 21 194 0.0 3.2 0.00 0.00 0.00 89 1012.5
20260831082539 21 190 0.0 3.2 0.00 0.00 0.00 89 1012.5
20260831082035 21 0 0.0 1.6 0.00 0.00 0.00 90 1012.6
20260831081556 21 0 0.0 1.6 0.00 0.00 0.00 90 1012.5
20260831081035 21 0 0.0 3.2 0.00 0.00 0.00 90 1012.7
20260831080532 21 0 0.0 3.2 0.00 0.00 0.00 90 1012.5
20260831080105 21 265 0.0 3.2 0.00 0.00 0.00 90 1012.7
20260831075534 21 0 0.0 1.6 0.00 0.00 0.00 90 1012.7
20260831075035 21 0 0.0 1.6 0.00 0.00 0.00 90 1012.7
20260831074557 21 0 0.0 3.2 0.00 0.00 0.00 90 1012.7
20260831074035 21 0 0.0 3.2 0.00 0.00 0.00 90 1012.7
20260831073532 21 0 0.0 3.2 0.00 0.00 0.00 90 1012.8
20260831073104 21 0 0.0 3.2 0.00 0.00 0.00 89 1012.8
20260831072537 21 0 0.0 1.6 0.00 0.00 0.00 89 1012.7
20260831072038 21 0 0.0 0.0 0.00 0.00 0.00 89 1012.8
20260831071557 21 0 0.0 0.0 0.00 0.00 0.00 89 1012.8
20260831071035 21 0 0.0 0.0 0.00 0.00 0.00 89 1012.8
20260831070535 21 0 0.0 0.0 0.00 0.00 0.00 89 1012.7
20260831070109 21 0 0.0 0.0 0.00 0.00 0.00 89 1012.8
20260831065531 21 0 0.0 0.0 0.00 0.00 0.00 89 1012.7
20260831065037 21 0 0.0 0.0 0.00 0.00 0.00 89 1012.7
20260831064559 21 0 0.0 0.0 0.00 0.00 0.00 89 1012.7
20260831064036 21 0 0.0 1.6 0.00 0.00 0.00 89 1012.6
20260831063535 21 0 0.0 3.2 0.00 0.00 0.00 89 1012.6
20260831063056 21 0 0.0 3.2 0.00 0.00 0.00 88 1012.6
20260831062534 21 0 0.0 3.2 0.00 0.00 0.00 88 1012.6
20260831062034 21 0 0.0 1.6 0.00 0.00 0.00 88 1012.5
20260831061554 21 0 0.0 1.6 0.00 0.00 0.00 88 1012.5
20260831061034 21 0 0.0 1.6 0.00 0.00 0.00 88 1012.5
20260831060532 21 0 0.0 0.0 0.00 0.00 0.00 88 1012.5
20260831060106 21 0 0.0 0.0 0.00 0.00 0.00 88 1012.4
20260831055535 21 0 0.0 0.0 0.00 0.00 0.00 88 1012.5
20260831055034 21 0 0.0 0.0 0.00 0.00 0.00 88 1012.6
20260831054604 21 0 0.0 0.0 0.00 0.00 0.00 88 1012.5
20260831054035 21 0 0.0 0.0 0.00 0.00 0.00 88 1012.5
20260831053535 21 0 0.0 1.6 0.00 0.00 0.00 88 1012.6
20260831053057 21 0 0.0 1.6 0.00 0.00 0.00 88 1012.6
20260831052538 21 0 0.0 1.6 0.00 0.00 0.00 88 1012.7
20260831052031 21 0 0.0 1.6 0.00 0.00 0.00 88 1012.6
20260831051555 21 0 0.0 1.6 0.00 0.00 0.00 88 1012.6
20260831051033 21 0 0.0 1.6 0.00 0.00 0.00 88 1012.6
20260831050535 21 0 0.0 0.0 0.00 0.00 0.00 88 1012.6
20260831050106 21 0 0.0 0.0 0.00 0.00 0.00 88 1012.6
20260831045535 21 0 0.0 0.0 0.00 0.00 0.00 88 1012.6
20260831045037 21 0 0.0 0.0 0.00 0.00 0.00 87 1012.5
20260831044600 21 0 0.0 0.0 0.00 0.00 0.00 87 1012.5
20260831044034 21 0 0.0 1.6 0.00 0.00 0.00 87 1012.5
20260831043532 21 0 0.0 1.6 0.00 0.00 0.00 87 1012.4
20260831043057 21 265 0.0 3.2 0.00 0.00 0.00 87 1012.4
20260831042536 21 0 0.0 3.2 0.00 0.00 0.00 87 1012.3
20260831042036 21 0 0.0 4.8 0.00 0.00 0.00 87 1012.4
20260831041602 21 265 0.0 4.8 0.00 0.00 0.00 87 1012.3
20260831041038 21 265 1.6 4.8 0.00 0.00 0.00 87 1012.2
20260831040534 21 281 1.6 4.8 0.00 0.00 0.00 87 1012.2
20260831040105 21 291 1.6 4.8 0.00 0.00 0.00 87 1012.1
20260831035532 21 278 1.6 4.8 0.00 0.00 0.00 86 1012.1
20260831035035 22 272 1.6 4.8 0.00 0.00 0.00 86 1012.1
20260831034607 22 300 1.6 4.8 0.00 0.00 0.00 86 1012.0
20260831034035 22 258 1.6 4.8 0.00 0.00 0.00 86 1012.0
20260831033533 22 271 1.6 6.4 0.00 0.00 0.00 86 1012.0
20260831033059 22 284 1.6 6.4 0.00 0.00 0.00 86 1011.9
20260831032535 22 276 3.2 6.4 0.00 0.00 0.00 86 1011.9
20260831032034 22 237 1.6 8.0 0.00 0.00 0.00 86 1011.8
20260831031601 22 312 0.0 8.0 0.00 0.00 0.00 85 1011.7
20260831031031 22 290 3.2 8.0 0.00 0.00 0.00 85 1011.6
20260831030531 22 298 1.6 4.8 0.00 0.00 0.00 85 1011.5
20260831030107 22 288 1.6 4.8 0.00 0.00 0.00 85 1011.6
20260831025535 22 292 1.6 3.2 0.00 0.00 0.00 85 1011.6
20260831025031 22 0 0.0 4.8 0.00 0.00 0.00 85 1011.6
20260831024553 22 0 0.0 9.7 0.00 0.00 0.00 85 1011.6
20260831024035 22 207 1.6 9.7 0.00 0.00 0.00 85 1011.6
20260831023534 22 209 1.6 9.7 0.00 0.00 0.00 84 1011.5
20260831023058 22 267 1.6 6.4 0.00 0.00 0.00 84 1011.4
20260831022534 22 271 1.6 6.4 0.00 0.00 0.00 84 1011.4
20260831022034 22 227 0.0 6.4 0.00 0.00 0.00 84 1011.4
20260831021605 22 248 1.6 6.4 0.00 0.00 0.00 84 1011.3
20260831021032 23 0 0.0 8.0 0.00 0.00 0.00 84 1011.2
20260831020532 23 286 3.2 8.0 0.00 0.00 0.00 83 1011.3
20260831020108 23 211 3.2 8.0 0.00 0.00 0.00 83 1011.3
20260831015532 23 300 3.2 8.0 0.00 0.00 0.00 83 1011.2
20260831015034 23 294 3.2 8.0 0.00 0.00 0.00 82 1011.1
20260831014603 23 245 3.2 6.4 0.00 0.00 0.00 82 1011.1
20260831014033 23 273 1.6 8.0 0.00 0.00 0.00 82 1011.2
20260831013532 23 278 3.2 8.0 0.00 0.00 0.00 81 1011.1
20260831013102 24 223 3.2 8.0 0.00 0.00 0.00 81 1011.1
20260831012531 24 225 4.8 12.9 0.00 0.00 0.00 80 1011.1
20260831012032 24 317 1.6 12.9 0.00 0.00 0.00 80 1011.0
20260831011612 25 248 3.2 12.9 0.00 0.00 0.00 79 1011.2
20260831011032 25 307 3.2 11.3 0.00 0.00 0.00 79 1011.2
20260831010532 25 274 3.2 9.7 0.00 0.00 0.00 79 1011.2
20260831010057 25 236 3.2 9.7 0.00 0.00 0.00 77 1011.2
20260831005533 25 235 4.8 11.3 0.00 0.00 0.00 77 1011.3
20260831005033 25 234 4.8 11.3 0.00 0.00 0.00 77 1011.2
20260831004556 25 213 3.2 11.3 0.00 0.00 0.00 77 1011.3
20260831004033 26 256 6.4 11.3 0.00 0.00 0.00 76 1011.1
20260831003532 26 227 3.2 9.7 0.00 0.00 0.00 76 1011.2
20260831003054 26 273 4.8 11.3 0.00 0.00 0.00 75 1011.2
20260831002535 26 255 4.8 14.5 0.00 0.00 0.00 75 1011.2
20260831002031 26 209 4.8 14.5 0.00 0.00 0.00 74 1011.3
20260831001603 26 269 6.4 14.5 0.00 0.00 0.00 74 1011.3
20260831001031 26 266 6.4 12.9 0.00 0.00 0.00 74 1011.2
20260831000531 26 209 4.8 12.9 0.00 0.00 0.00 74 1011.3
20260831000103 26 275 4.8 12.9 0.00 0.00 0.00 74 1011.2
20260830235531 26 237 6.4 12.9 0.00 0.00 0.00 74 1011.2
20260830235033 26 0 4.8 12.9 0.00 0.00 0.00 74 1011.3
20260830234557 26 236 4.8 12.9 0.00 0.00 0.00 74 1011.4
20260830234032 26 310 4.8 12.9 0.00 0.00 0.00 75 1011.4
20260830233533 26 242 6.4 12.9 0.00 0.00 0.00 75 1011.3
20260830233055 26 308 4.8 16.1 0.00 0.00 0.00 74 1011.3
20260830232538 26 289 4.8 16.1 0.00 0.00 0.00 74 1011.2
20260830232033 27 272 4.8 16.1 0.00 0.00 0.00 74 1011.3
20260830231558 27 235 3.2 12.9 0.00 0.00 0.00 75 1011.3
20260830231033 26 265 6.4 12.9 0.00 0.00 0.00 74 1011.4
20260830230532 26 248 3.2 12.9 0.00 0.00 0.00 74 1011.4
20260830225531 26 309 4.8 12.9 0.00 0.00 0.00 75 1011.4
20260830225032 26 259 4.8 16.1 0.00 0.00 0.00 76 1011.5
20260830224621 26 288 3.2 16.1 0.00 0.00 0.00 76 1011.6
20260830224035 26 279 8.0 16.1 0.00 0.00 0.00 75 1011.6
20260830223532 26 265 8.0 14.5 0.00 0.00 0.00 75 1011.7
20260830223056 26 276 8.0 16.1 0.00 0.00 0.00 74 1011.7
20260830222535 26 212 8.0 16.1 0.00 0.00 0.00 75 1011.7
20260830222032 27 270 8.0 14.5 0.00 0.00 0.00 75 1011.7
20260830221614 27 286 4.8 14.5 0.00 0.00 0.00 74 1011.7
20260830221032 27 323 6.4 16.1 0.00 0.00 0.00 74 1011.7
20260830220532 27 272 4.8 16.1 0.00 0.00 0.00 74 1011.8
20260830215531 27 282 6.4 12.9 0.00 0.00 0.00 74 1011.9
20260830215031 27 236 4.8 12.9 0.00 0.00 0.00 74 1011.9
20260830214605 27 251 6.4 12.9 0.00 0.00 0.00 74 1011.9
20260830214031 27 315 6.4 16.1 0.00 0.00 0.00 72 1011.9
20260830213534 27 278 4.8 16.1 0.00 0.00 0.00 73 1012.0
20260830213055 27 269 6.4 16.1 0.00 0.00 0.00 73 1012.0
20260830212532 26 234 6.4 12.9 0.00 0.00 0.00 72 1012.1
20260830212032 26 279 4.8 17.7 0.00 0.00 0.00 76 1012.2
20260830211559 26 175 6.4 17.7 0.00 0.00 0.00 74 1012.3
20260830211031 26 203 6.4 14.5 0.00 0.00 0.00 74 1012.3
20260830210534 26 243 6.4 16.1 0.00 0.00 0.00 75 1012.4
20260830210100 26 221 8.0 17.7 0.00 0.00 0.00 75 1012.3
20260830205531 26 251 8.0 17.7 0.00 0.00 0.00 76 1012.3
20260830205031 26 248 8.0 14.5 0.00 0.00 0.00 75 1012.4
20260830204553 26 215 6.4 19.3 0.00 0.00 0.00 75 1012.4
20260830204034 26 279 6.4 19.3 0.00 0.00 0.00 76 1012.4
20260830203531 26 190 6.4 14.5 0.00 0.00 0.00 75 1012.4
20260830203058 26 302 8.0 12.9 0.00 0.00 0.00 75 1012.4
20260830202531 27 261 8.0 17.7 0.00 0.00 0.00 75 1012.4
20260830202032 27 255 6.4 17.7 0.00 0.00 0.00 76 1012.4
20260830201556 26 304 8.0 14.5 0.00 0.00 0.00 75 1012.4
20260830201031 26 227 6.4 14.5 0.00 0.00 0.00 75 1012.4
20260830200537 26 255 8.0 14.5 0.00 0.00 0.00 74 1012.3
20260830200056 27 273 8.0 14.5 0.00 0.00 0.00 75 1012.4
20260830195531 26 289 6.4 14.5 0.00 0.00 0.00 77 1012.4
20260830195031 26 277 6.4 12.9 0.00 0.00 0.00 77 1012.3
20260830194605 26 233 4.8 12.9 0.00 0.00 0.00 77 1012.4
20260830194031 26 269 6.4 17.7 0.00 0.00 0.00 77 1012.5
20260830193531 26 213 4.8 17.7 0.00 0.00 0.00 77 1012.5
20260830193058 26 231 8.0 16.1 0.00 0.00 0.00 77 1012.5
20260830192532 26 217 6.4 14.5 0.00 0.00 0.00 78 1012.5
20260830192031 26 223 6.4 14.5 0.00 0.00 0.00 77 1012.6
20260830191553 26 246 4.8 16.1 0.00 0.00 0.00 78 1012.6
20260830191032 26 205 8.0 16.1 0.00 0.00 0.00 78 1012.6
20260830190533 26 274 8.0 16.1 0.00 0.00 0.00 78 1012.7
20260830190053 26 258 6.4 16.1 0.00 0.00 0.00 78 1012.7
20260830185534 26 217 6.4 16.1 0.00 0.00 0.00 77 1012.9
20260830185034 26 217 8.0 16.1 0.00 0.00 0.00 77 1012.9
20260830184600 26 231 8.0 16.1 0.00 0.00 0.00 77 1012.9
20260830184033 26 267 8.0 16.1 0.00 0.00 0.00 77 1012.8
20260830183532 26 253 6.4 14.5 0.00 0.00 0.00 78 1012.8
20260830183057 26 246 8.0 14.5 0.00 0.00 0.00 77 1012.8
20260830182534 26 283 4.8 12.9 0.00 0.00 0.00 78 1012.8
20260830182033 26 236 4.8 12.9 0.00 0.00 0.00 78 1012.8
20260830181553 26 232 6.4 12.9 0.00 0.00 0.00 78 1012.9
20260830181032 25 271 4.8 12.9 0.00 0.00 0.00 80 1012.8
20260830180536 25 228 4.8 12.9 0.00 0.00 0.00 79 1012.8
20260830175531 25 246 4.8 12.9 0.00 0.00 0.00 81 1012.7
20260830175032 25 246 4.8 11.3 0.00 0.00 0.00 81 1012.7
20260830174557 25 273 4.8 9.7 0.00 0.00 0.00 81 1012.7
20260830174033 25 255 3.2 9.7 0.00 0.00 0.00 81 1012.7
20260830173531 25 274 4.8 12.9 0.00 0.00 0.00 82 1012.6
20260830173054 25 273 4.8 12.9 0.00 0.00 0.00 82 1012.6
20260830172531 25 320 3.2 11.3 0.00 0.00 0.00 83 1012.5
20260830172032 24 252 6.4 11.3 0.00 0.00 0.00 82 1012.4
20260830171606 24 265 3.2 9.7 0.00 0.00 0.00 83 1012.4
20260830171118 24 215 3.2 11.3 0.00 0.00 0.00 84 1012.3
20260830171031 24 215 3.2 11.3 0.00 0.00 0.00 84 1012.3
20260830170532 24 283 3.2 11.3 0.00 0.00 0.00 83 1012.3
20260830165534 23 274 4.8 11.3 0.00 0.00 0.00 83 1012.3
20260830165039 24 215 4.8 9.7 0.00 0.00 0.00 84 1012.2
20260830164603 23 286 3.2 9.7 0.00 0.00 0.00 83 1012.2
20260830164034 23 228 4.8 9.7 0.00 0.00 0.00 84 1012.3
20260830163533 23 288 3.2 6.4 0.00 0.00 0.00 84 1012.3
20260830163100 23 252 3.2 8.0 0.00 0.00 0.00 84 1012.2
20260830162533 23 209 3.2 8.0 0.00 0.00 0.00 83 1012.2
20260830162036 23 202 3.2 6.4 0.00 0.00 0.00 84 1012.3
20260830161611 23 0 1.6 6.4 0.00 0.00 0.00 85 1012.2
20260830161032 23 219 0.0 4.8 0.00 0.00 0.00 85 1012.2
20260830160532 23 0 0.0 4.8 0.00 0.00 0.00 86 1012.2
20260830160056 23 248 0.0 6.4 0.00 0.00 0.00 86 1012.2
20260830155532 23 0 1.6 6.4 0.00 0.00 0.00 86 1012.2
20260830155032 22 103 0.0 6.4 0.00 0.00 0.00 87 1012.2
20260830154551 22 0 0.0 4.8 0.00 0.00 0.00 87 1012.1
20260830154033 22 0 0.0 4.8 0.00 0.00 0.00 87 1012.1
20260830153531 22 176 0.0 6.4 0.00 0.00 0.00 87 1012.2
20260830153101 22 0 0.0 6.4 0.00 0.00 0.00 87 1012.2
20260830152532 22 0 0.0 1.6 0.00 0.00 0.00 87 1012.1
20260830152033 22 0 0.0 4.8 0.00 0.00 0.00 87 1012.1
20260830151605 22 0 0.0 4.8 0.00 0.00 0.00 87 1012.2
20260830151032 22 207 0.0 3.2 0.00 0.00 0.00 88 1012.2
20260830150533 22 0 0.0 4.8 0.00 0.00 0.00 88 1012.3
20260830150100 22 0 0.0 4.8 0.00 0.00 0.00 88 1012.3
20260830145532 22 0 0.0 3.2 0.00 0.00 0.00 89 1012.3
20260830145032 22 222 0.0 4.8 0.00 0.00 0.00 89 1012.2
20260830144603 22 0 0.0 4.8 0.00 0.00 0.00 89 1012.2
20260830144033 22 0 0.0 3.2 0.00 0.00 0.00 89 1012.1
20260830143533 22 0 0.0 4.8 0.00 0.00 0.00 90 1012.1
20260830143110 22 184 0.0 4.8 0.00 0.00 0.00 90 1012.1
20260830142532 22 211 0.0 4.8 0.00 0.00 0.00 90 1012.1
20260830142033 22 0 0.0 4.8 0.00 0.00 0.00 90 1012.1
20260830141555 22 199 0.0 3.2 0.00 0.00 0.00 90 1012.1
20260830141033 22 159 0.0 1.6 0.00 0.00 0.00 90 1012.1
20260830140531 22 0 0.0 1.6 0.00 0.00 0.00 90 1012.0
20260830140054 22 0 0.0 1.6 0.00 0.00 0.00 90 1012.0
20260830135531 21 0 0.0 1.6 0.00 0.00 0.00 90 1012.0
20260830135034 21 0 0.0 0.0 0.00 0.00 0.00 90 1011.9
20260830134603 21 0 0.0 0.0 0.00 0.00 0.00 90 1011.9
20260830134033 21 0 0.0 0.0 0.00 0.00 0.00 90 1011.9
20260830133533 21 0 0.0 0.0 0.00 0.00 0.00 90 1011.9
20260830133057 21 0 0.0 0.0 0.00 0.00 0.00 90 1011.8
20260830132534 21 0 0.0 0.0 0.00 0.00 0.00 90 1011.8
20260830132032 21 0 0.0 0.0 0.00 0.00 0.00 90 1011.7
20260830131555 21 0 0.0 1.6 0.00 0.00 0.00 90 1011.7
20260830131032 21 0 0.0 1.6 0.00 0.00 0.00 90 1011.7
20260830130531 21 0 0.0 1.6 0.00 0.00 0.00 90 1011.6
20260830130104 21 0 0.0 1.6 0.00 0.00 0.00 90 1011.7
20260830125531 21 0 0.0 0.0 0.00 0.00 0.00 90 1011.7
20260830125033 21 0 0.0 3.2 0.00 0.00 0.00 90 1011.6
20260830124600 21 0 0.0 3.2 0.00 0.00 0.00 91 1011.6
20260830124032 22 0 0.0 1.6 0.00 0.00 0.00 91 1011.5
20260830123532 21 0 0.0 1.6 0.00 0.00 0.00 91 1011.5
20260830123125 22 0 0.0 1.6 0.00 0.00 0.00 91 1011.6
20260830122532 22 0 0.0 1.6 0.00 0.00 0.00 91 1011.5
20260830122034 22 0 0.0 3.2 0.00 0.00 0.00 91 1011.5
20260830121557 22 0 0.0 3.2 0.00 0.00 0.00 91 1011.5
20260830121033 22 0 0.0 3.2 0.00 0.00 0.00 91 1011.5
20260830120531 22 0 0.0 1.6 0.00 0.00 0.00 91 1011.5
20260830120058 22 0 0.0 1.6 0.00 0.00 0.00 92 1011.5
20260830115532 22 0 0.0 1.6 0.00 0.00 0.00 92 1011.5
20260830115031 22 0 0.0 1.6 0.00 0.00 0.00 92 1011.4
20260830114607 22 0 0.0 1.6 0.00 0.00 0.00 92 1011.4
20260830114031 22 0 0.0 0.0 0.00 0.00 0.00 92 1011.5
20260830113531 22 0 0.0 0.0 0.00 0.00 0.00 92 1011.6
20260830113056 22 0 0.0 0.0 0.00 0.00 0.00 92 1011.6
20260830112534 22 0 0.0 1.6 0.00 0.00 0.00 92 1011.6
20260830112032 22 0 0.0 1.6 0.00 0.00 0.00 92 1011.5
20260830111554 22 0 0.0 1.6 0.00 0.00 0.00 92 1011.4
20260830111032 22 0 0.0 1.6 0.00 0.00 0.00 92 1011.4
20260830110531 22 0 0.0 1.6 0.00 0.00 0.00 92 1011.5
20260830110054 22 0 0.0 3.2 0.00 0.00 0.00 92 1011.5
20260830105531 22 0 0.0 3.2 0.00 0.00 0.00 92 1011.5
20260830105035 22 0 0.0 3.2 0.00 0.00 0.00 92 1011.5
20260830104556 22 0 0.0 4.8 0.00 0.00 0.00 92 1011.5
20260830104036 22 0 0.0 4.8 0.00 0.00 0.00 92 1011.5
20260830103539 22 0 1.6 4.8 0.00 0.00 0.00 92 1011.4
20260830103054 22 0 0.0 4.8 0.00 0.00 0.00 92 1011.3
20260830102535 22 0 1.6 4.8 0.00 0.00 0.00 92 1011.3
20260830102035 22 0 0.0 3.2 0.00 0.00 0.00 92 1011.3
20260830101556 22 0 0.0 1.6 0.00 0.00 0.00 92 1011.3
20260830101035 22 0 0.0 1.6 0.00 0.00 0.00 92 1011.3
20260830100537 22 0 0.0 3.2 0.00 0.00 0.00 92 1011.3
20260830095537 22 0 0.0 3.2 0.00 0.00 0.00 92 1011.2
20260830095038 22 0 0.0 3.2 0.00 0.00 0.00 91 1011.2
20260830094559 22 0 0.0 1.6 0.00 0.00 0.00 91 1011.3
20260830094034 22 0 0.0 3.2 0.00 0.00 0.00 91 1011.3
20260830093537 22 0 0.0 3.2 0.00 0.00 0.00 91 1011.2
20260830093055 22 0 0.0 1.6 0.00 0.00 0.00 92 1011.3